Time,TemperatureF,DewpointF,PressureIn,WindDirection,WindDirectionDegrees,WindSpeedMPH,WindSpeedGustMPH,Humidity,HourlyPrecipIn,Conditions,Clouds,dailyrainin,SolarRadiationWatts/m^2,SoftwareType,DateUTC
2017-04-30 00:04:00,55.1,40.0,30.19,NNW,337,9.0,9.0,56,0.00,,,0.00,30,Rainwise IP-100,2017-04-30 04:04:00,
2017-04-30 00:09:00,54.9,40.0,30.19,NW,315,5.0,10.0,56,0.00,,,0.00,30,Rainwise IP-100,2017-04-30 04:09:00,
2017-04-30 00:14:00,54.6,39.0,30.19,NW,315,7.0,9.0,55,0.00,,,0.00,34,Rainwise IP-100,2017-04-30 04:14:00,
2017-04-30 00:19:00,54.3,38.0,30.19,WNW,292,6.0,9.0,54,0.00,,,0.00,33,Rainwise IP-100,2017-04-30 04:19:00,
2017-04-30 00:24:00,53.9,39.0,30.20,NW,315,9.0,9.0,56,0.00,,,0.00,32,Rainwise IP-100,2017-04-30 04:24:00,
2017-04-30 00:29:00,53.7,38.0,30.20,NW,315,7.0,12.0,55,0.00,,,0.00,32,Rainwise IP-100,2017-04-30 04:29:00,
2017-04-30 00:34:00,53.7,37.0,30.20,NW,315,4.0,11.0,53,0.00,,,0.00,27,Rainwise IP-100,2017-04-30 04:34:00,
2017-04-30 00:40:00,53.5,37.0,30.21,NW,315,7.0,10.0,53,0.00,,,0.00,26,Rainwise IP-100,2017-04-30 04:40:00,
2017-04-30 00:45:00,53.3,36.0,30.21,WNW,292,4.0,9.0,53,0.00,,,0.00,31,Rainwise IP-100,2017-04-30 04:45:00,
2017-04-30 00:50:00,52.7,37.0,30.22,NNW,337,1.0,7.0,55,0.00,,,0.00,30,Rainwise IP-100,2017-04-30 04:50:00,
2017-04-30 00:55:00,52.4,36.0,30.22,NW,315,1.0,7.0,54,0.00,,,0.00,30,Rainwise IP-100,2017-04-30 04:55:00,
2017-04-30 01:00:00,52.2,37.0,30.23,NW,315,5.0,7.0,56,0.00,,,0.00,30,Rainwise IP-100,2017-04-30 05:00:00,
2017-04-30 01:05:00,51.8,36.0,30.23,WNW,292,6.0,7.0,55,0.00,,,0.00,30,Rainwise IP-100,2017-04-30 05:05:00,
2017-04-30 01:10:00,51.8,36.0,30.24,NNW,337,6.0,9.0,54,0.00,,,0.00,32,Rainwise IP-100,2017-04-30 05:10:00,
2017-04-30 01:16:00,51.8,36.0,30.25,NW,315,6.0,10.0,54,0.00,,,0.00,32,Rainwise IP-100,2017-04-30 05:16:00,
2017-04-30 01:21:00,51.7,36.0,30.25,WNW,292,7.0,12.0,54,0.00,,,0.00,30,Rainwise IP-100,2017-04-30 05:21:00,
2017-04-30 01:26:00,51.5,36.0,30.25,WNW,292,6.0,9.0,55,0.00,,,0.00,30,Rainwise IP-100,2017-04-30 05:26:00,
2017-04-30 01:31:00,51.3,35.0,30.25,NW,315,7.0,10.0,53,0.00,,,0.00,21,Rainwise IP-100,2017-04-30 05:31:00,
2017-04-30 01:36:00,50.9,36.0,30.25,NW,315,2.0,8.0,54,0.00,,,0.00,21,Rainwise IP-100,2017-04-30 05:36:00,
2017-04-30 01:41:00,50.7,35.0,30.25,NNW,337,4.0,7.0,54,0.00,,,0.00,21,Rainwise IP-100,2017-04-30 05:41:00,
2017-04-30 01:46:00,50.6,35.0,30.25,WNW,292,5.0,9.0,55,0.00,,,0.00,27,Rainwise IP-100,2017-04-30 05:46:00,
2017-04-30 01:51:00,50.4,35.0,30.26,NW,315,2.0,7.0,54,0.00,,,0.00,27,Rainwise IP-100,2017-04-30 05:51:00,
2017-04-30 01:57:00,50.2,35.0,30.26,NW,315,5.0,7.0,55,0.00,,,0.00,27,Rainwise IP-100,2017-04-30 05:57:00,
2017-04-30 02:02:00,49.8,33.0,30.26,WNW,292,6.0,10.0,53,0.00,,,0.00,32,Rainwise IP-100,2017-04-30 06:02:00,
2017-04-30 02:07:00,49.5,35.0,30.26,NW,315,5.0,7.0,55,0.00,,,0.00,31,Rainwise IP-100,2017-04-30 06:07:00,
2017-04-30 02:12:00,49.2,33.0,30.26,NW,315,7.0,8.0,55,0.00,,,0.00,30,Rainwise IP-100,2017-04-30 06:12:00,
2017-04-30 02:17:00,48.8,33.0,30.26,North,360,8.0,9.0,55,0.00,,,0.00,30,Rainwise IP-100,2017-04-30 06:17:00,
2017-04-30 02:22:00,48.7,33.0,30.26,NW,315,7.0,10.0,54,0.00,,,0.00,29,Rainwise IP-100,2017-04-30 06:22:00,
2017-04-30 02:27:00,48.5,33.0,30.26,WNW,292,6.0,9.0,55,0.00,,,0.00,26,Rainwise IP-100,2017-04-30 06:27:00,
2017-04-30 02:33:00,48.2,33.0,30.26,WNW,292,6.0,9.0,56,0.00,,,0.00,20,Rainwise IP-100,2017-04-30 06:33:00,
2017-04-30 02:38:00,47.9,33.0,30.26,WNW,292,7.0,8.0,55,0.00,,,0.00,20,Rainwise IP-100,2017-04-30 06:38:00,
2017-04-30 02:43:00,47.7,33.0,30.26,WNW,292,8.0,8.0,57,0.00,,,0.00,20,Rainwise IP-100,2017-04-30 06:43:00,
2017-04-30 02:48:00,47.5,33.0,30.26,NNW,337,5.0,8.0,57,0.00,,,0.00,27,Rainwise IP-100,2017-04-30 06:48:00,
2017-04-30 02:53:00,47.2,32.0,30.25,NW,315,7.0,7.0,56,0.00,,,0.00,29,Rainwise IP-100,2017-04-30 06:53:00,
2017-04-30 02:58:00,47.1,32.0,30.26,WNW,292,4.0,8.0,55,0.00,,,0.00,33,Rainwise IP-100,2017-04-30 06:58:00,
2017-04-30 03:03:00,46.9,32.0,30.26,NW,315,3.0,7.0,56,0.00,,,0.00,31,Rainwise IP-100,2017-04-30 07:03:00,
2017-04-30 03:08:00,46.8,32.0,30.27,NW,315,4.0,8.0,56,0.00,,,0.00,25,Rainwise IP-100,2017-04-30 07:08:00,
2017-04-30 03:14:00,46.6,32.0,30.27,NW,315,2.0,7.0,57,0.00,,,0.00,25,Rainwise IP-100,2017-04-30 07:14:00,
2017-04-30 03:19:00,46.3,32.0,30.27,NW,315,2.0,6.0,57,0.00,,,0.00,22,Rainwise IP-100,2017-04-30 07:19:00,
2017-04-30 03:24:00,46.1,32.0,30.27,NW,315,2.0,6.0,57,0.00,,,0.00,24,Rainwise IP-100,2017-04-30 07:24:00,
2017-04-30 03:29:00,45.6,32.0,30.28,NNW,337,3.0,6.0,58,0.00,,,0.00,26,Rainwise IP-100,2017-04-30 07:29:00,
2017-04-30 03:34:00,45.4,32.0,30.27,NW,315,3.0,5.0,60,0.00,,,0.00,19,Rainwise IP-100,2017-04-30 07:34:00,
2017-04-30 03:39:00,45.3,32.0,30.27,NW,315,3.0,7.0,59,0.00,,,0.00,23,Rainwise IP-100,2017-04-30 07:39:00,
2017-04-30 03:44:00,44.9,32.0,30.27,NW,315,3.0,5.0,60,0.00,,,0.00,19,Rainwise IP-100,2017-04-30 07:44:00,
2017-04-30 03:50:00,44.7,32.0,30.27,NW,315,2.0,4.0,60,0.00,,,0.00,26,Rainwise IP-100,2017-04-30 07:50:00,
2017-04-30 03:55:00,44.5,32.0,30.27,NW,315,2.0,5.0,61,0.00,,,0.00,27,Rainwise IP-100,2017-04-30 07:55:00,
2017-04-30 04:01:00,44.3,32.0,30.27,NW,315,3.0,5.0,61,0.00,,,0.00,27,Rainwise IP-100,2017-04-30 08:01:00,
2017-04-30 04:06:00,44.2,32.0,30.28,NW,315,0.0,4.0,61,0.00,,,0.00,26,Rainwise IP-100,2017-04-30 08:06:00,
2017-04-30 04:11:00,43.9,32.0,30.28,NW,315,0.0,4.0,62,0.00,,,0.00,26,Rainwise IP-100,2017-04-30 08:11:00,
2017-04-30 04:16:00,43.6,32.0,30.27,NW,315,0.0,3.0,62,0.00,,,0.00,26,Rainwise IP-100,2017-04-30 08:16:00,
2017-04-30 04:21:00,43.3,31.0,30.27,NW,315,1.0,3.0,62,0.00,,,0.00,27,Rainwise IP-100,2017-04-30 08:21:00,
2017-04-30 04:26:00,43.3,31.0,30.27,NNW,337,1.0,5.0,62,0.00,,,0.00,23,Rainwise IP-100,2017-04-30 08:26:00,
2017-04-30 04:31:00,43.3,31.0,30.27,NW,315,1.0,4.0,62,0.00,,,0.00,22,Rainwise IP-100,2017-04-30 08:31:00,
2017-04-30 04:36:00,43.2,32.0,30.27,NW,315,0.0,3.0,63,0.00,,,0.00,22,Rainwise IP-100,2017-04-30 08:36:00,
2017-04-30 04:42:00,42.9,32.0,30.27,NW,315,6.0,6.0,63,0.00,,,0.00,27,Rainwise IP-100,2017-04-30 08:42:00,
2017-04-30 04:47:00,42.9,31.0,30.28,NNW,337,4.0,10.0,61,0.00,,,0.00,26,Rainwise IP-100,2017-04-30 08:47:00,
2017-04-30 04:52:00,42.9,31.0,30.27,NNW,337,3.0,10.0,60,0.00,,,0.00,27,Rainwise IP-100,2017-04-30 08:52:00,
2017-04-30 04:57:00,42.7,31.0,30.27,NW,315,4.0,9.0,61,0.00,,,0.00,27,Rainwise IP-100,2017-04-30 08:57:00,
2017-04-30 05:02:00,42.4,29.0,30.27,NW,315,7.0,11.0,59,0.00,,,0.00,27,Rainwise IP-100,2017-04-30 09:02:00,
2017-04-30 05:07:00,42.2,29.0,30.27,NNW,337,1.0,10.0,59,0.00,,,0.00,26,Rainwise IP-100,2017-04-30 09:07:00,
2017-04-30 05:12:00,41.9,29.0,30.28,NNW,337,3.0,9.0,60,0.00,,,0.00,21,Rainwise IP-100,2017-04-30 09:12:00,
2017-04-30 05:18:00,41.7,29.0,30.28,North,360,5.0,9.0,60,0.00,,,0.00,17,Rainwise IP-100,2017-04-30 09:18:00,
2017-04-30 05:20:00,41.8,29.0,30.28,NW,315,1.0,7.0,60,0.00,,,0.00,21,Rainwise IP-100,2017-04-30 09:20:00,
2017-04-30 05:25:00,41.6,29.0,30.29,NW,315,6.0,10.0,59,0.00,,,0.00,18,Rainwise IP-100,2017-04-30 09:25:00,
2017-04-30 05:30:00,41.4,29.0,30.28,NW,315,7.0,10.0,60,0.00,,,0.00,10,Rainwise IP-100,2017-04-30 09:30:00,
2017-04-30 05:35:00,41.0,28.0,30.29,NW,315,6.0,9.0,59,0.00,,,0.00,8,Rainwise IP-100,2017-04-30 09:35:00,
2017-04-30 05:40:00,40.9,28.0,30.28,NW,315,2.0,10.0,59,0.00,,,0.00,0,Rainwise IP-100,2017-04-30 09:40:00,
2017-04-30 05:45:00,40.7,28.0,30.29,NW,315,4.0,7.0,59,0.00,,,0.00,0,Rainwise IP-100,2017-04-30 09:45:00,
2017-04-30 05:50:00,40.4,28.0,30.30,NW,315,2.0,7.0,60,0.00,,,0.00,0,Rainwise IP-100,2017-04-30 09:50:00,
2017-04-30 05:55:00,40.3,28.0,30.30,NW,315,5.0,7.0,59,0.00,,,0.00,0,Rainwise IP-100,2017-04-30 09:55:00,
2017-04-30 06:01:00,40.1,28.0,30.31,NW,315,3.0,9.0,60,0.00,,,0.00,0,Rainwise IP-100,2017-04-30 10:01:00,
2017-04-30 06:06:00,40.0,28.0,30.30,NW,315,2.0,7.0,60,0.00,,,0.00,0,Rainwise IP-100,2017-04-30 10:06:00,
2017-04-30 06:11:00,40.1,28.0,30.31,NW,315,5.0,10.0,59,0.00,,,0.00,0,Rainwise IP-100,2017-04-30 10:11:00,
2017-04-30 06:16:00,40.1,28.0,30.31,NW,315,6.0,9.0,59,0.00,,,0.00,0,Rainwise IP-100,2017-04-30 10:16:00,
2017-04-30 06:21:00,40.1,28.0,30.31,NNW,337,6.0,9.0,58,0.00,,,0.00,0,Rainwise IP-100,2017-04-30 10:21:00,
2017-04-30 06:26:00,40.3,28.0,30.32,NW,315,1.0,10.0,59,0.00,,,0.00,0,Rainwise IP-100,2017-04-30 10:26:00,
2017-04-30 06:31:00,40.3,28.0,30.32,North,360,5.0,7.0,59,0.00,,,0.00,0,Rainwise IP-100,2017-04-30 10:31:00,
2017-04-30 06:37:00,40.3,28.0,30.32,NW,315,2.0,7.0,59,0.00,,,0.00,0,Rainwise IP-100,2017-04-30 10:37:00,
2017-04-30 06:42:00,40.3,28.0,30.32,WNW,292,5.0,8.0,58,0.00,,,0.00,0,Rainwise IP-100,2017-04-30 10:42:00,
2017-04-30 06:47:00,40.3,28.0,30.31,NW,315,7.0,12.0,59,0.00,,,0.00,0,Rainwise IP-100,2017-04-30 10:47:00,
2017-04-30 06:52:00,40.5,28.0,30.31,NW,315,5.0,7.0,59,0.00,,,0.00,0,Rainwise IP-100,2017-04-30 10:52:00,
2017-04-30 06:57:00,40.5,28.0,30.32,NNW,337,3.0,12.0,59,0.00,,,0.00,0,Rainwise IP-100,2017-04-30 10:57:00,
2017-04-30 07:02:00,40.7,28.0,30.32,NW,315,2.0,9.0,59,0.00,,,0.00,0,Rainwise IP-100,2017-04-30 11:02:00,
2017-04-30 07:07:00,40.8,28.0,30.32,NW,315,6.0,10.0,57,0.00,,,0.00,0,Rainwise IP-100,2017-04-30 11:07:00,
2017-04-30 07:13:00,40.9,28.0,30.33,NW,315,7.0,12.0,58,0.00,,,0.00,0,Rainwise IP-100,2017-04-30 11:13:00,
2017-04-30 07:18:00,41.1,28.0,30.33,NNW,337,3.0,11.0,58,0.00,,,0.00,0,Rainwise IP-100,2017-04-30 11:18:00,
2017-04-30 07:23:00,41.4,28.0,30.33,NW,315,3.0,12.0,57,0.00,,,0.00,0,Rainwise IP-100,2017-04-30 11:23:00,
2017-04-30 07:28:00,41.6,28.0,30.33,NW,315,9.0,10.0,55,0.00,,,0.00,0,Rainwise IP-100,2017-04-30 11:28:00,
2017-04-30 07:33:00,42.0,28.0,30.34,NW,315,8.0,10.0,56,0.00,,,0.00,0,Rainwise IP-100,2017-04-30 11:33:00,
2017-04-30 07:38:00,42.5,29.0,30.34,NW,315,7.0,10.0,56,0.00,,,0.00,0,Rainwise IP-100,2017-04-30 11:38:00,
2017-04-30 07:43:00,42.4,28.0,30.34,NW,315,5.0,10.0,54,0.00,,,0.00,0,Rainwise IP-100,2017-04-30 11:43:00,
2017-04-30 07:48:00,42.2,28.0,30.34,NW,315,4.0,8.0,56,0.00,,,0.00,0,Rainwise IP-100,2017-04-30 11:48:00,
2017-04-30 07:54:00,42.1,28.0,30.35,NW,315,6.0,7.0,56,0.00,,,0.00,0,Rainwise IP-100,2017-04-30 11:54:00,
2017-04-30 07:59:00,42.6,29.0,30.35,NNW,337,4.0,9.0,56,0.00,,,0.00,0,Rainwise IP-100,2017-04-30 11:59:00,
2017-04-30 08:04:00,43.2,29.0,30.34,NW,315,6.0,8.0,56,0.00,,,0.00,0,Rainwise IP-100,2017-04-30 12:04:00,
2017-04-30 08:09:00,43.4,28.0,30.35,NW,315,6.0,7.0,55,0.00,,,0.00,0,Rainwise IP-100,2017-04-30 12:09:00,
2017-04-30 08:14:00,43.4,28.0,30.34,NW,315,2.0,10.0,54,0.00,,,0.00,0,Rainwise IP-100,2017-04-30 12:14:00,
2017-04-30 08:19:00,43.4,28.0,30.35,NNE,22,2.0,9.0,54,0.00,,,0.00,0,Rainwise IP-100,2017-04-30 12:19:00,
2017-04-30 08:24:00,43.4,28.0,30.34,NNW,337,3.0,9.0,54,0.00,,,0.00,0,Rainwise IP-100,2017-04-30 12:24:00,
2017-04-30 08:29:00,43.5,29.0,30.34,NW,315,4.0,7.0,56,0.00,,,0.00,0,Rainwise IP-100,2017-04-30 12:29:00,
2017-04-30 08:35:00,43.8,29.0,30.35,NW,315,5.0,7.0,55,0.00,,,0.00,0,Rainwise IP-100,2017-04-30 12:35:00,